�N����,����,�~����,�C��,���x,�C��,����,���ϕ���,�ő�u�ԕ���,�ő厞����,���˗�,�I�_���x,�n�����x,�ő啗���N��,DTYPE
"24/01/26","00:10",0.0,1.8,90.9,1013.8,297.4,3.1,4.8,294.0,0.00,0.5,5.8,"00:03:38",1
"24/01/26","00:20",0.0,1.8,91.1,1013.5,294.9,2.3,3.1,270.4,0.00,0.5,5.9,"00:11:50",1
"24/01/26","00:30",0.0,1.8,91.2,1013.8,298.0,2.5,3.1,283.7,0.00,0.6,5.7,"00:22:56",1
"24/01/26","00:40",0.0,1.8,91.3,1013.8,283.8,2.5,3.1,299.3,0.00,0.6,5.8,"00:32:26",1
"24/01/26","00:50",0.0,1.8,91.5,1013.8,282.3,2.8,3.5,306.2,0.00,0.6,5.7,"00:44:20",1
"24/01/26","01:00",0.0,1.8,91.7,1013.8,265.0,3.0,4.9,264.4,0.00,0.6,5.7,"00:59:56",1
"24/01/26","01:10",0.0,1.8,91.8,1014.0,284.1,3.5,4.8,269.8,0.00,0.7,5.7,"01:09:42",1
"24/01/26","01:20",0.0,1.9,91.9,1014.2,276.3,3.1,5.0,267.0,0.00,0.8,5.5,"01:14:48",1
"24/01/26","01:30",0.0,1.9,91.9,1014.2,274.2,3.1,4.8,269.5,0.00,0.8,5.6,"01:28:00",1
"24/01/26","01:40",0.0,2.0,91.9,1014.2,282.7,2.7,4.9,315.1,0.00,0.9,5.7,"01:30:22",1
"24/01/26","01:50",0.0,2.0,92.0,1014.2,279.8,2.6,4.7,259.5,0.00,0.9,5.8,"01:42:52",1
"24/01/26","02:00",0.0,1.9,92.0,1014.5,292.4,2.7,4.1,323.8,0.00,0.8,5.6,"01:52:20",1
"24/01/26","02:10",0.0,2.0,92.1,1014.2,286.8,2.5,4.9,248.8,0.00,0.9,5.5,"02:04:54",1
"24/01/26","02:20",0.0,2.0,92.2,1014.9,283.9,2.2,2.8,328.6,0.00,0.9,5.8,"02:17:34",1
"24/01/26","02:30",0.0,2.0,92.3,1014.9,281.9,2.2,4.3,321.6,0.00,0.9,5.4,"02:26:24",1
"24/01/26","02:40",0.0,2.0,92.3,1015.2,275.8,1.7,2.6,259.9,0.00,0.9,5.5,"02:35:16",1
"24/01/26","02:50",0.0,2.0,92.4,1014.7,281.7,1.7,2.5,306.4,0.00,0.9,5.8,"02:43:28",1
"24/01/26","03:00",0.0,2.1,92.5,1015.2,287.7,2.2,4.8,303.8,0.00,1.1,5.6,"02:57:18",1
"24/01/26","03:10",0.0,2.1,92.5,1014.9,292.0,2.3,3.5,323.2,0.00,1.1,5.8,"03:01:20",1
"24/01/26","03:20",0.0,2.1,92.5,1014.9,280.8,2.0,3.4,306.3,0.00,1.1,5.6,"03:16:22",1
"24/01/26","03:30",0.0,2.2,92.4,1014.7,271.0,1.2,2.8,296.2,0.00,1.1,5.5,"03:22:50",1
"24/01/26","03:40",0.0,2.2,92.3,1014.9,232.4,1.6,2.7,236.0,0.00,1.1,5.5,"03:39:02",1
"24/01/26","03:50",0.0,2.2,92.1,1015.2,259.7,1.8,3.3,244.7,0.00,1.1,5.7,"03:42:14",1
"24/01/26","04:00",0.0,2.2,91.9,1015.2,283.0,1.6,2.5,315.2,0.00,1.1,5.4,"03:57:44",1
"24/01/26","04:10",0.0,2.2,91.8,1015.2,284.3,1.5,2.1,263.4,0.00,1.0,5.6,"04:07:50",1
"24/01/26","04:20",0.0,2.2,91.8,1015.4,275.9,0.7,1.7,288.8,0.00,1.0,5.6,"04:10:28",1
"24/01/26","04:30",0.0,2.2,91.7,1015.2,275.8,1.3,2.4,319.0,0.00,1.0,5.6,"04:29:02",1
"24/01/26","04:40",0.0,2.1,91.7,1015.2,296.2,1.1,1.9,334.4,0.00,0.9,5.6,"04:38:22",1
"24/01/26","04:50",0.0,2.1,91.6,1014.9,283.2,1.5,3.1,290.0,0.00,0.9,5.2,"04:43:12",1
"24/01/26","05:00",0.0,2.1,91.5,1015.4,300.4,1.2,2.1,317.7,0.00,0.9,5.6,"04:54:38",1
"24/01/26","05:10",0.0,2.0,91.4,1015.4,282.3,1.2,2.8,280.7,0.00,0.8,5.5,"05:09:44",1
"24/01/26","05:20",0.0,2.2,91.0,1015.2,266.4,2.6,4.9,244.2,0.00,0.9,5.4,"05:18:16",1
"24/01/26","05:30",0.0,2.3,90.5,1014.9,271.7,2.2,4.0,235.9,0.00,0.9,5.6,"05:20:08",1
"24/01/26","05:40",0.0,2.3,90.0,1015.4,271.6,2.0,3.3,255.9,0.00,0.9,5.6,"05:30:40",1
"24/01/26","05:50",0.0,2.3,89.5,1015.2,272.6,1.7,2.7,245.0,0.00,0.8,5.8,"05:40:42",1
"24/01/26","06:00",0.0,2.3,89.1,1015.2,270.0,2.0,3.6,246.8,0.00,0.7,5.4,"05:57:26",1
"24/01/26","06:10",0.0,2.3,88.6,1015.2,276.4,1.5,3.1,303.4,0.00,0.7,5.5,"06:06:00",1
"24/01/26","06:20",0.0,2.3,88.1,1015.2,270.0,1.3,2.6,247.4,0.00,0.6,5.4,"06:14:32",1
"24/01/26","06:30",0.0,2.1,87.8,1015.4,272.5,1.5,2.4,240.2,0.00,0.3,5.5,"06:23:02",1
"24/01/26","06:40",0.0,1.9,87.7,1015.4,291.6,1.8,3.2,320.8,0.00,0.1,5.5,"06:34:00",1
"24/01/26","06:50",0.0,1.8,87.8,1015.4,272.0,1.6,2.7,273.4,0.00,0.0,5.6,"06:40:40",1
"24/01/26","07:00",0.0,1.7,88.0,1015.6,305.3,1.5,2.5,309.7,0.00,0.0,5.3,"06:51:28",1
"24/01/26","07:10",0.0,1.5,88.2,1015.6,308.0,2.0,3.5,319.3,0.00,-0.2,5.7,"07:09:36",1
"24/01/26","07:20",0.0,1.4,88.5,1015.6,301.3,1.6,3.4,311.9,0.00,-0.2,5.4,"07:18:16",1
"24/01/26","07:30",0.0,0.8,88.9,1015.9,290.9,1.3,2.6,310.2,0.00,-0.8,5.7,"07:20:56",1
"24/01/26","07:40",0.0,1.1,89.4,1015.6,266.0,0.8,1.4,267.7,0.01,-0.4,5.6,"07:32:16",1
"24/01/26","07:50",0.0,1.5,89.8,1015.6,268.3,1.1,2.2,291.8,0.04,0.1,5.5,"07:48:44",1
"24/01/26","08:00",0.0,2.2,89.8,1015.9,257.2,2.2,3.2,266.0,0.07,0.7,5.5,"07:59:36",1
"24/01/26","08:10",0.0,2.6,89.2,1016.1,275.1,2.5,4.3,266.1,0.08,1.0,5.5,"08:08:24",1
"24/01/26","08:20",0.0,2.9,88.5,1015.9,279.2,2.8,5.5,309.2,0.09,1.2,5.4,"08:15:44",1
"24/01/26","08:30",0.0,3.4,87.3,1016.4,263.1,2.3,4.5,247.7,0.16,1.5,5.4,"08:23:52",1
"24/01/26","08:40",0.0,3.4,86.1,1016.6,252.0,3.1,5.0,258.9,0.10,1.3,5.4,"08:37:20",1
"24/01/26","08:50",0.0,3.5,85.5,1016.8,268.3,3.6,5.5,257.0,0.19,1.3,5.5,"08:47:36",1
"24/01/26","09:00",0.0,4.1,84.8,1017.1,268.3,3.0,5.6,237.3,0.30,1.8,5.4,"08:53:36",1
"24/01/26","09:10",0.0,4.6,83.7,1017.1,292.8,3.2,5.7,306.4,0.36,2.1,5.3,"09:00:02",1
"24/01/26","09:20",0.0,4.5,82.2,1017.1,293.4,3.7,7.2,308.3,0.32,1.8,5.5,"09:18:00",1
"24/01/26","09:30",0.0,4.7,81.9,1016.8,287.3,3.7,7.1,311.6,0.40,1.9,5.6,"09:22:00",1
"24/01/26","09:40",0.0,5.0,80.2,1017.3,299.8,3.9,6.3,347.9,0.38,1.9,5.5,"09:36:24",1
"24/01/26","09:50",0.0,4.7,79.9,1017.5,286.6,3.1,9.0,317.1,0.24,1.6,5.8,"09:44:50",1
"24/01/26","10:00",0.0,4.7,79.9,1017.5,289.3,4.0,6.7,289.3,0.32,1.6,5.5,"09:56:16",1
"24/01/26","10:10",0.0,4.8,79.8,1017.5,274.7,3.4,7.1,330.1,0.21,1.7,5.7,"10:00:08",1
"24/01/26","10:20",0.0,4.4,80.0,1017.5,267.0,4.1,6.6,265.0,0.11,1.3,5.7,"10:15:16",1
"24/01/26","10:30",0.0,4.2,80.6,1017.5,277.1,4.1,6.6,286.4,0.10,1.2,5.7,"10:24:48",1
"24/01/26","10:40",0.0,4.3,81.5,1017.3,282.2,3.9,6.6,333.9,0.11,1.5,5.9,"10:30:32",1
"24/01/26","10:50",0.0,3.9,82.7,1017.3,277.5,4.1,8.8,278.8,0.10,1.3,5.8,"10:42:08",1
"24/01/26","11:00",0.0,3.7,83.9,1017.1,288.0,3.7,5.9,251.4,0.12,1.3,5.8,"10:57:44",1
"24/01/26","11:10",0.0,4.1,84.5,1017.1,280.7,3.7,7.0,265.6,0.13,1.8,5.7,"11:03:36",1
"24/01/26","11:20",0.0,5.0,83.7,1017.3,287.7,3.6,6.6,246.5,0.42,2.5,6.1,"11:10:16",1
"24/01/26","11:30",0.0,5.1,81.4,1017.3,291.8,3.9,5.9,281.1,0.27,2.2,6.2,"11:20:48",1
"24/01/26","11:40",0.0,5.3,79.8,1017.1,273.9,3.7,6.4,297.9,0.34,2.1,6.1,"11:37:50",1
"24/01/26","11:50",0.0,5.7,78.0,1017.1,287.7,3.9,6.6,325.9,0.39,2.2,6.2,"11:41:04",1
"24/01/26","12:00",0.0,5.3,77.5,1017.1,292.4,3.6,7.3,315.2,0.21,1.7,6.2,"11:51:52",1
"24/01/26","12:10",0.0,5.5,78.1,1017.1,292.9,3.5,5.5,270.7,0.23,2.0,6.1,"12:08:32",1
"24/01/26","12:20",0.0,5.4,77.9,1016.6,277.3,4.2,7.2,279.9,0.26,1.9,6.3,"12:17:28",1
"24/01/26","12:30",0.0,5.0,78.1,1016.6,278.4,4.6,7.8,256.8,0.16,1.5,6.2,"12:21:04",1
"24/01/26","12:40",0.0,5.2,79.9,1015.9,287.7,5.0,10.2,309.5,0.27,2.1,6.2,"12:36:08",1
"24/01/26","12:50",0.0,4.9,80.6,1015.9,290.7,4.5,8.2,330.6,0.19,1.9,6.3,"12:42:32",1
"24/01/26","13:00",0.0,4.9,82.0,1015.9,309.3,3.1,7.0,325.6,0.15,2.1,6.2,"12:50:56",1
"24/01/26","13:10",0.0,5.1,81.9,1015.9,296.9,4.0,7.3,304.8,0.19,2.3,6.4,"13:03:36",1
"24/01/26","13:20",0.0,5.3,80.9,1015.6,292.5,3.9,6.7,309.2,0.18,2.3,6.4,"13:13:28",1
"24/01/26","13:30",0.0,5.7,80.0,1015.6,297.4,3.4,6.3,251.6,0.27,2.6,6.5,"13:28:40",1
"24/01/26","13:40",0.0,5.3,78.6,1015.6,281.8,4.5,8.1,282.7,0.17,1.9,6.6,"13:39:30",1
"24/01/26","13:50",0.0,5.4,78.0,1015.6,283.5,4.2,8.5,266.1,0.16,1.9,6.7,"13:46:56",1
"24/01/26","14:00",0.0,5.5,77.4,1015.6,303.9,3.7,5.9,319.0,0.15,1.9,6.5,"13:56:00",1
"24/01/26","14:10",0.0,5.5,76.3,1015.9,297.4,3.5,5.7,347.6,0.15,1.7,6.6,"14:02:08",1
"24/01/26","14:20",0.0,5.6,75.2,1016.1,303.3,4.1,7.8,336.1,0.12,1.6,6.7,"14:10:16",1
"24/01/26","14:30",0.0,5.7,75.5,1015.6,302.1,4.5,9.8,327.3,0.23,1.8,6.7,"14:23:20",1
"24/01/26","14:40",0.0,6.3,74.5,1016.1,276.6,3.9,6.2,300.4,0.41,2.1,6.6,"14:37:16",1
"24/01/26","14:50",0.0,6.6,72.1,1016.1,289.8,3.4,7.0,312.0,0.46,2.0,6.6,"14:49:40",1
"24/01/26","15:00",0.0,6.6,72.2,1016.1,279.5,4.0,6.3,258.2,0.37,2.0,6.8,"14:51:36",1
"24/01/26","15:10",0.0,6.1,72.4,1016.6,294.4,4.2,7.5,329.7,0.17,1.6,7.0,"15:00:16",1
"24/01/26","15:20",0.0,6.0,73.4,1016.6,301.6,3.2,5.0,258.5,0.15,1.6,7.0,"15:12:36",1
"24/01/26","15:30",0.0,5.9,73.6,1016.6,291.2,3.4,5.9,310.1,0.12,1.6,6.8,"15:26:16",1
"24/01/26","15:40",0.0,5.6,74.7,1016.8,268.6,3.1,4.7,244.7,0.06,1.5,7.0,"15:30:52",1
"24/01/26","15:50",0.0,5.3,75.7,1016.8,291.7,3.7,6.4,327.4,0.05,1.4,6.9,"15:49:12",1
"24/01/26","16:00",0.0,5.2,77.0,1016.8,288.6,3.7,6.7,323.4,0.04,1.5,7.0,"15:52:40",1
"24/01/26","16:10",0.0,5.0,78.0,1016.6,290.6,3.9,5.8,317.6,0.03,1.5,7.1,"16:01:12",1
"24/01/26","16:20",0.0,4.9,79.1,1016.8,274.8,3.2,5.5,255.9,0.03,1.6,7.2,"16:13:12",1
"24/01/26","16:30",0.0,4.7,80.0,1016.6,284.3,3.2,5.2,315.1,0.02,1.6,7.0,"16:28:08",1
"24/01/26","16:40",0.0,4.5,80.7,1016.1,299.2,3.9,7.3,313.7,0.00,1.5,7.2,"16:33:36",1
"24/01/26","16:50",0.0,4.4,81.1,1016.8,305.2,3.9,5.8,321.6,0.00,1.5,7.0,"16:49:36",1
"24/01/26","17:00",0.0,4.5,81.3,1016.8,313.7,4.4,6.6,310.1,0.00,1.6,7.0,"16:51:12",1
"24/01/26","17:10",0.0,4.5,81.4,1016.6,297.5,3.6,7.1,321.4,0.00,1.6,7.2,"17:05:28",1
"24/01/26","17:20",0.0,4.4,81.6,1016.8,306.8,3.4,5.4,326.3,0.00,1.6,6.9,"17:15:20",1
"24/01/26","17:30",0.0,4.4,81.8,1016.8,301.2,3.4,5.1,321.0,0.00,1.6,7.2,"17:22:00",1
"24/01/26","17:40",0.0,4.3,82.1,1016.6,298.2,2.8,5.7,324.6,0.00,1.6,7.0,"17:31:12",1
"24/01/26","17:50",0.0,4.3,82.4,1016.4,283.6,3.1,5.0,250.5,0.00,1.6,7.0,"17:44:32",1
"24/01/26","18:00",0.0,4.3,82.7,1016.8,302.4,3.7,7.0,339.5,0.00,1.7,7.0,"17:55:04",1
"24/01/26","18:10",0.0,4.2,82.9,1017.1,290.3,3.0,4.8,319.2,0.00,1.6,7.0,"18:03:22",1
"24/01/26","18:20",0.0,4.1,83.2,1017.1,282.9,3.0,4.8,319.1,0.00,1.5,6.9,"18:15:54",1
"24/01/26","18:30",0.0,4.0,83.5,1016.8,316.2,2.7,5.1,337.8,0.00,1.5,7.0,"18:20:32",1
"24/01/26","18:40",0.0,4.0,84.0,1016.8,295.3,2.3,3.5,299.8,0.00,1.6,6.8,"18:37:32",1
"24/01/26","18:50",0.0,4.0,84.2,1017.1,312.2,2.7,4.4,322.2,0.00,1.6,6.9,"18:40:24",1
"24/01/26","19:00",0.0,3.8,84.5,1017.1,308.9,2.7,4.1,316.3,0.00,1.5,7.0,"18:54:24",1
"24/01/26","19:10",0.0,3.9,84.6,1017.1,302.2,2.6,5.6,310.0,0.00,1.6,6.8,"19:03:46",1
"24/01/26","19:20",0.0,3.9,84.6,1017.1,290.5,2.7,5.4,320.1,0.00,1.6,6.9,"19:14:52",1
"24/01/26","19:30",0.0,3.9,84.5,1016.8,305.6,2.7,4.4,323.9,0.00,1.6,6.9,"19:21:06",1
"24/01/26","19:40",0.0,3.8,84.4,1017.5,311.4,3.4,4.8,291.7,0.00,1.5,6.8,"19:32:04",1
"24/01/26","19:50",0.0,3.8,84.5,1017.1,307.1,2.8,4.3,324.4,0.00,1.5,6.9,"19:45:38",1
"24/01/26","20:00",0.0,3.7,84.7,1017.3,300.8,2.7,4.7,305.5,0.00,1.4,6.7,"19:56:34",1
"24/01/26","20:10",0.0,3.7,84.8,1017.3,314.0,2.7,5.1,301.5,0.00,1.4,6.8,"20:03:42",1
"24/01/26","20:20",0.0,3.5,84.8,1016.8,323.9,3.5,5.4,345.5,0.00,1.2,6.7,"20:12:10",1
"24/01/26","20:30",0.0,3.3,85.1,1016.8,321.9,2.6,4.1,340.7,0.00,1.1,6.8,"20:23:06",1
"24/01/26","20:40",0.0,3.5,85.2,1016.8,310.6,2.7,4.0,304.7,0.00,1.3,6.6,"20:32:10",1
"24/01/26","20:50",0.0,3.7,85.0,1017.1,312.6,3.2,5.4,311.2,0.00,1.5,6.7,"20:44:10",1
"24/01/26","21:00",0.0,3.8,84.7,1017.1,302.2,3.1,5.9,320.4,0.00,1.5,6.7,"20:52:26",1
"24/01/26","21:10",0.0,3.8,84.4,1017.1,303.8,2.8,5.1,318.8,0.00,1.5,6.4,"21:06:02",1
"24/01/26","21:20",0.0,3.8,84.2,1017.1,310.0,3.0,5.0,307.6,0.00,1.4,6.8,"21:17:40",1
"24/01/26","21:30",0.0,3.9,84.0,1017.1,295.8,3.7,6.5,334.2,0.00,1.5,6.6,"21:20:44",1
"24/01/26","21:40",0.0,3.9,83.9,1017.1,284.8,3.2,6.3,293.9,0.00,1.5,6.6,"21:33:54",1
"24/01/26","21:50",0.0,3.8,83.9,1017.1,301.6,3.5,6.2,327.6,0.00,1.4,6.7,"21:49:14",1
"24/01/26","22:00",0.0,3.8,83.9,1017.3,296.7,3.1,4.8,259.4,0.00,1.4,6.6,"21:54:52",1
"24/01/26","22:10",0.0,3.9,83.8,1017.3,296.1,2.8,5.8,307.0,0.00,1.5,6.6,"22:01:30",1
"24/01/26","22:20",0.0,4.0,83.4,1017.5,296.4,3.4,6.4,322.0,0.00,1.5,6.7,"22:18:28",1
"24/01/26","22:30",0.0,4.0,82.7,1017.1,292.4,3.1,5.0,255.4,0.00,1.4,6.5,"22:26:30",1
"24/01/26","22:40",0.0,4.1,82.2,1017.5,287.9,2.7,4.3,262.2,0.00,1.4,6.4,"22:38:28",1
"24/01/26","22:50",0.0,4.1,81.9,1017.5,296.4,2.7,4.7,293.1,0.00,1.3,6.5,"22:44:48",1
"24/01/26","23:00",0.0,4.1,81.6,1017.8,321.1,3.5,6.6,341.7,0.00,1.3,6.4,"22:55:30",1
"24/01/26","23:10",0.0,4.0,81.6,1017.8,311.3,3.0,4.9,313.2,0.00,1.2,6.6,"23:00:08",1
"24/01/26","23:20",0.0,4.0,81.6,1017.5,310.3,2.6,5.8,316.8,0.00,1.2,6.6,"23:18:26",1
"24/01/26","23:30",0.0,4.0,81.6,1017.8,302.3,3.1,5.9,311.3,0.00,1.2,6.5,"23:27:10",1
"24/01/26","23:40",0.0,4.0,81.6,1017.8,297.6,3.2,4.4,313.0,0.00,1.2,6.6,"23:32:16",1
"24/01/26","23:50",0.0,4.1,81.6,1017.8,296.6,3.9,6.4,302.4,0.00,1.3,6.5,"23:46:16",1
"24/01/26","24:00",0.0,4.1,81.5,1017.3,297.2,4.2,7.0,320.3,0.00,1.3,6.5,"23:59:44",1
